This is the latest recevied weather packets stored in our database for station/object KG4AGD. If no packets are shown the sender has not sent any weather packets the latest 10 day(s).
| Time | Temp. | Humidity | Pressure | Rain* | Wind** | Luminosity | Snow |
|---|---|---|---|---|---|---|---|
| 1777920123 | 26.11° C | 36% | 1016.2 hPa | 0 mm | - | - | - |
| 1777919820 | 26.11° C | 37% | 1016.2 hPa | 0 mm | - | - | - |
| 1777919518 | 26.67° C | 38% | 1016.2 hPa | 0 mm | - | - | - |
| 1777919216 | 26.11° C | 37% | 1016.2 hPa | 0 mm | - | - | - |
| 1777918914 | 26.11° C | 38% | 1016.2 hPa | 0 mm | - | - | - |
| 1777918611 | 25.56° C | 38% | 1016.5 hPa | 0 mm | - | - | - |
| 1777918309 | 26.11° C | 37% | 1016.5 hPa | 0 mm | - | - | - |
| 1777918007 | 26.11° C | 37% | 1016.5 hPa | 0 mm | - | - | - |
| 1777917705 | 26.67° C | 39% | 1016.5 hPa | 0 mm | - | - | - |
| 1777917402 | 26.11° C | 35% | 1016.9 hPa | 0 mm | - | - | - |
| 1777917100 | 25.56° C | 37% | 1016.9 hPa | 0 mm | - | - | - |
| 1777916798 | 26.11° C | 35% | 1016.9 hPa | 0 mm | - | - | - |
| 1777916496 | 26.67° C | 38% | 1016.9 hPa | 0 mm | - | - | - |
| 1777916194 | 26.11° C | 38% | 1016.9 hPa | 0 mm | - | - | - |
| 1777915891 | 26.11° C | 38% | 1016.9 hPa | 0 mm | - | - | - |
| 1777915589 | 27.22° C | 35% | 1016.9 hPa | 0 mm | - | - | - |
| 1777915287 | 26.11° C | 39% | 1017.2 hPa | 0 mm | - | - | - |
| 1777914985 | 26.11° C | 35% | 1017.2 hPa | 0 mm | - | - | - |
| 1777914683 | 26.11° C | 39% | 1017.2 hPa | 0 mm | - | - | - |
| 1777914381 | 26.11° C | 37% | 1017.2 hPa | 0 mm | - | - | - |
| 1777914078 | 25.56° C | 35% | 1017.2 hPa | 0 mm | - | - | - |
| 1777913776 | 26.11° C | 37% | 1017.2 hPa | 0 mm | - | - | - |
| 1777913474 | 26.67° C | 36% | 1017.6 hPa | 0 mm | - | - | - |
| 1777913172 | 26.11° C | 38% | 1017.6 hPa | 0 mm | - | - | - |
| 1777912870 | 26.11° C | 43% | 1017.6 hPa | 0 mm | - | - | - |
* Rain since midnight (hover to see other rain measurements)
** Current wind speed in m/s (hover to see current wind gust speed)